When you browse on this site, cookies collect data to enhance your experience and personalize the content and advertising you see.
Visit our Privacy Policy to learn more. By continuing to use the site, you agree to this use of cookies and data.
  • In Austria
  • List of Countries
  • For 7 days
  • Water Temperature
  • Satellite Maps
  • Weather Map
  • News
  • Weather Widgets
  • user-avatar
    Login

    Hourly Weather Przemyśl

    Today, 22 May, Wednesday

    Time Temperature Precipitation Wind Pressure Humidity
    00:00 +13°C° 1 mm 5 mps 735 mmHg 93%
    01:00 +13°C° 1 mm 5 mps 735 mmHg 93%
    02:00 +13°C° 0 mm 4 mps 734 mmHg 94%
    03:00 +13°C° 0.4 mm 4 mps 734 mmHg 94%
    04:00 +13°C° 0.4 mm 4 mps 734 mmHg 94%
    05:00 +13°C° 0.4 mm 5 mps 734 mmHg 93%
    06:00 +13°C° 0.9 mm 5 mps 734 mmHg 93%
    07:00 +13°C° 0.9 mm 5 mps 734 mmHg 93%
    08:00 +13°C° 0 mm 5 mps 734 mmHg 93%
    09:00 +14°C° 0.2 mm 5 mps 735 mmHg 87%
    10:00 +15°C° 0.2 mm 6 mps 735 mmHg 82%
    11:00 +16°C° 0.2 mm 7 mps 735 mmHg 77%
    12:00 +17°C° 0.1 mm 6 mps 735 mmHg 76%
    13:00 +17°C° 0.1 mm 6 mps 735 mmHg 75%
    14:00 +17°C° 0.1 mm 6 mps 735 mmHg 73%
    15:00 +17°C° 0.3 mm 5 mps 735 mmHg 75%
    16:00 +17°C° 0.3 mm 5 mps 735 mmHg 76%
    17:00 +18°C° 0.3 mm 4 mps 735 mmHg 78%
    18:00 +17°C° 0.6 mm 4 mps 735 mmHg 82%
    19:00 +16°C° 0.6 mm 3 mps 735 mmHg 86%
    20:00 +14°C° 0.6 mm 3 mps 735 mmHg 89%
    21:00 +13°C° 0 mm 3 mps 735 mmHg 91%
    22:00 +13°C° 0 mm 2 mps 735 mmHg 92%
    23:00 +13°C° 0 mm 2 mps 736 mmHg 94%

    Tomorrow, 23 May, Thursday

    Time Temperature Precipitation Wind Pressure Humidity
    00:00 +13°C° 0 mm 2 mps 736 mmHg 94%
    01:00 +12°C° 0 mm 2 mps 736 mmHg 95%
    02:00 +12°C° 0 mm 2 mps 736 mmHg 95%
    03:00 +13°C° 0.1 mm 2 mps 736 mmHg 95%
    04:00 +13°C° 0.1 mm 2 mps 737 mmHg 95%
    05:00 +13°C° 0.1 mm 1 mps 737 mmHg 95%
    06:00 +14°C° 0.1 mm 1 mps 737 mmHg 94%
    07:00 +14°C° 0.1 mm 1 mps 737 mmHg 93%
    08:00 +15°C° 0.1 mm 1 mps 738 mmHg 92%
    09:00 +16°C° 0.3 mm 1 mps 738 mmHg 90%
    10:00 +16°C° 0.3 mm 2 mps 738 mmHg 89%
    11:00 +17°C° 0.3 mm 2 mps 738 mmHg 87%
    12:00 +18°C° 0.9 mm 2 mps 738 mmHg 83%
    13:00 +19°C° 0.9 mm 2 mps 738 mmHg 78%
    14:00 +20°C° 0.9 mm 2 mps 738 mmHg 74%
    15:00 +20°C° 1.2 mm 2 mps 738 mmHg 77%
    16:00 +19°C° 1.2 mm 3 mps 738 mmHg 81%
    17:00 +19°C° 1.2 mm 4 mps 738 mmHg 84%
    18:00 +18°C° 0.3 mm 4 mps 738 mmHg 87%
    19:00 +17°C° 0.3 mm 4 mps 739 mmHg 91%
    20:00 +15°C° 0.3 mm 4 mps 739 mmHg 94%
    21:00 +14°C° 0.6 mm 4 mps 739 mmHg 95%
    22:00 +14°C° 0.6 mm 4 mps 739 mmHg 96%
    23:00 +14°C° 0.6 mm 4 mps 739 mmHg 97%

    Day after tomorrow, 24 May, Friday

    Time Temperature Precipitation Wind Pressure Humidity
    00:00 +14°C° 0.3 mm 3 mps 739 mmHg 98%
    01:00 +14°C° 0.3 mm 3 mps 739 mmHg 98%
    02:00 +14°C° 0.3 mm 2 mps 739 mmHg 98%
    03:00 +14°C° 0.3 mm 2 mps 739 mmHg 98%
    04:00 +14°C° 0.3 mm 2 mps 739 mmHg 98%
    05:00 +14°C° 0.3 mm 2 mps 739 mmHg 98%
    06:00 +15°C° 0.4 mm 2 mps 739 mmHg 97%
    07:00 +14°C° 0.4 mm 3 mps 740 mmHg 96%
    08:00 +16°C° 0.4 mm 3 mps 740 mmHg 95%
    09:00 +16°C° 0.4 mm 3 mps 740 mmHg 94%
    10:00 +16°C° 0.4 mm 3 mps 740 mmHg 94%
    11:00 +15°C° 0.4 mm 4 mps 740 mmHg 93%
    12:00 +17°C° 0.1 mm 4 mps 740 mmHg 92%
    13:00 +17°C° 0.1 mm 4 mps 740 mmHg 90%
    14:00 +17°C° 0.1 mm 4 mps 740 mmHg 89%
    15:00 +17°C° 0.1 mm 3 mps 739 mmHg 89%
    16:00 +17°C° 0.1 mm 3 mps 739 mmHg 89%
    17:00 +17°C° 0.1 mm 3 mps 739 mmHg 89%
    18:00 +16°C° 0 mm 3 mps 739 mmHg 90%
    19:00 +16°C° 0 mm 2 mps 739 mmHg 91%
    20:00 +16°C° 0 mm 1 mps 739 mmHg 92%
    21:00 +15°C° 0 mm 2 mps 739 mmHg 93%
    22:00 +15°C° 0 mm 2 mps 739 mmHg 93%
    23:00 +14°C° 0 mm 2 mps 739 mmHg 94%

    25 May, Saturday

    Time Temperature Precipitation Wind Pressure Humidity
    00:00 +14°C° 0 mm 2 mps 739 mmHg 94%
    01:00 +14°C° 0 mm 2 mps 739 mmHg 95%
    02:00 +14°C° 0 mm 2 mps 739 mmHg 96%
    03:00 +13°C° 0 mm 2 mps 739 mmHg 96%
    04:00 +13°C° 0 mm 2 mps 739 mmHg 96%
    05:00 +13°C° 0 mm 2 mps 739 mmHg 96%
    06:00 +14°C° 0 mm 2 mps 739 mmHg 94%
    07:00 +15°C° 0 mm 2 mps 739 mmHg 91%
    08:00 +16°C° 0 mm 2 mps 740 mmHg 89%
    09:00 +17°C° 0 mm 3 mps 740 mmHg 80%
    10:00 +18°C° 0 mm 3 mps 740 mmHg 72%
    11:00 +20°C° 0 mm 3 mps 740 mmHg 64%
    12:00 +20°C° 0 mm 3 mps 740 mmHg 62%
    13:00 +21°C° 0 mm 3 mps 739 mmHg 61%
    14:00 +22°C° 0 mm 3 mps 739 mmHg 60%
    15:00 +21°C° 0.4 mm 3 mps 739 mmHg 65%
    16:00 +21°C° 0.4 mm 3 mps 739 mmHg 70%
    17:00 +20°C° 0.4 mm 3 mps 739 mmHg 75%
    18:00 +19°C° 0.3 mm 3 mps 739 mmHg 79%
    19:00 +18°C° 0.3 mm 2 mps 739 mmHg 83%
    20:00 +16°C° 0.3 mm 2 mps 739 mmHg 87%
    21:00 +16°C° 0 mm 2 mps 740 mmHg 88%
    22:00 +15°C° 0 mm 2 mps 740 mmHg 90%
    23:00 +14°C° 0 mm 2 mps 740 mmHg 91%

    26 May, Sunday

    Time Temperature Precipitation Wind Pressure Humidity
    00:00 +13°C° 0 mm 2 mps 740 mmHg 92%
    01:00 +13°C° 0 mm 2 mps 740 mmHg 93%
    02:00 +13°C° 0 mm 2 mps 740 mmHg 94%
    03:00 +12°C° 0 mm 2 mps 740 mmHg 94%
    04:00 +12°C° 0 mm 2 mps 740 mmHg 94%
    05:00 +12°C° 0 mm 2 mps 740 mmHg 94%
    06:00 +14°C° 0 mm 2 mps 740 mmHg 89%
    07:00 +15°C° 0 mm 1 mps 740 mmHg 84%
    08:00 +18°C° 0 mm 1 mps 740 mmHg 79%
    09:00 +18°C° 0.5 mm 2 mps 740 mmHg 79%
    10:00 +19°C° 0.5 mm 2 mps 740 mmHg 78%
    11:00 +20°C° 0.5 mm 3 mps 740 mmHg 78%
    12:00 +20°C° 1.3 mm 3 mps 739 mmHg 79%
    13:00 +20°C° 1.3 mm 4 mps 739 mmHg 80%
    14:00 +20°C° 1.3 mm 4 mps 739 mmHg 81%
    15:00 +20°C° 1.8 mm 4 mps 739 mmHg 84%
    16:00 +19°C° 1.8 mm 3 mps 738 mmHg 87%
    17:00 +18°C° 1.8 mm 3 mps 738 mmHg 89%
    18:00 +17°C° 0.4 mm 3 mps 738 mmHg 90%
    19:00 +16°C° 0.4 mm 2 mps 739 mmHg 91%
    20:00 +16°C° 0.4 mm 2 mps 739 mmHg 92%
    21:00 +14°C° 0 mm 2 mps 739 mmHg 91%
    22:00 +13°C° 0 mm 2 mps 740 mmHg 91%
    23:00 +12°C° 0 mm 1 mps 740 mmHg 90%

    27 May, Monday

    Time Temperature Precipitation Wind Pressure Humidity
    00:00 +12°C° 0 mm 2 mps 740 mmHg 90%
    01:00 +10°C° 0 mm 2 mps 741 mmHg 89%
    02:00 +9°C° 0 mm 2 mps 741 mmHg 89%
    03:00 +9°C° 0 mm 2 mps 741 mmHg 90%
    04:00 +9°C° 0 mm 2 mps 741 mmHg 91%
    05:00 +8°C° 0 mm 2 mps 741 mmHg 92%
    06:00 +10°C° 0 mm 2 mps 741 mmHg 87%
    07:00 +13°C° 0 mm 2 mps 741 mmHg 82%
    08:00 +14°C° 0 mm 1 mps 742 mmHg 78%
    09:00 +16°C° 0 mm 1 mps 742 mmHg 72%
    10:00 +19°C° 0 mm 1 mps 742 mmHg 66%
    11:00 +21°C° 0 mm 1 mps 741 mmHg 61%
    12:00 +22°C° 0 mm 1 mps 741 mmHg 58%
    13:00 +22°C° 0 mm 1 mps 741 mmHg 56%
    14:00 +23°C° 0 mm 1 mps 741 mmHg 54%
    15:00 +23°C° 0 mm 2 mps 740 mmHg 59%
    16:00 +21°C° 0 mm 2 mps 740 mmHg 63%
    17:00 +21°C° 0 mm 3 mps 739 mmHg 68%
    18:00 +20°C° 0 mm 3 mps 739 mmHg 74%
    19:00 +19°C° 0 mm 3 mps 739 mmHg 80%
    20:00 +18°C° 0 mm 3 mps 738 mmHg 85%
    21:00 +17°C° 0.4 mm 3 mps 738 mmHg 89%
    22:00 +17°C° 0.4 mm 2 mps 738 mmHg 92%
    23:00 +16°C° 0.4 mm 2 mps 737 mmHg 95%
    Show more